Preview of NWS' New Version of Forecast
This preview is not operational and should not be used for support decisions.

Regional Weather Roundup (RWR)

Issued by National Weather Service (NWS)

                            
000
ASPQ40 PGUM 181110
RWRPQ 
WEATHER ROUNDUP FOR THE MARIANAS AND MICRONESIA
NATIONAL WEATHER SERVICE TIYAN GU
900 PM CHST MON FEB 18 2019

GUZ001>004-181200-
MARIANA ISLANDS-
  
CITY           SKY/WX    TMP DP  RH WIND       PRES   REMARKS
GUAM AIRPORT   CLOUDY    77  75  94 NE12      30.04R                  
ANDERSEN AFB   MOCLDY    75  72  88 NE14G22   30.03S                  
ROTA AIRPORT   NOT AVBL                                               
TINIAN AP      NOT AVBL                                               
SAIPAN AP      CLOUDY    77  70  78 E24       30.06R                  

$$

PMZ161-181200-
REPUBLIC OF PALAU-
  
CITY           SKY/WX    TMP DP  RH WIND       PRES   REMARKS
KOROR AP       PTCLDY    79  72  78 NE13G18   29.94R                  
KOROR WSO      NOT AVBL                                               

$$

PMZ171>174-181200-
FEDERATED STATES OF MICRONESIA-
  
CITY           SKY/WX    TMP DP  RH WIND       PRES   REMARKS
YAP AIRPORT    MOCLDY    82  73  74 NE8       29.96R                  
CHUUK AP       CLOUDY    82  75  78 NE14      29.88R                  
POHNPEI AP     NOT AVBL                                               
POHNPEI WSO    CLOUDY    81  75  83 NE10      29.87R                  
KOSRAE AP      NOT AVBL                                               

$$

PMZ181-181200-
REPUBLIC OF THE MARSHALL ISLANDS-
  
CITY           SKY/WX    TMP DP  RH WIND       PRES   REMARKS
KWAJALEIN AP   PTCLDY    81  79  94 E25G33    29.83F                  
MAJURO AP      MOCLDY    82  77  83 E29       29.82F HX  91           
MAJURO WSO     MOCLDY    82  75  78 E12       29.82S                  

$$